{"data":{"norad_id":53662,"intl_designator":"2022-105Q","name":"STARLINK-4357","alt_names":[],"object_type":"PAYLOAD","status":"ACTIVE","operator":null,"country":"US","launch_date":"2022-08-31","launch_site_code":"AFWTR","launch_vehicle":null,"mission":null,"orbit_class":"UNKNOWN","rcs_meters":null,"size_class":null,"mass_kg":null,"dimensions":null,"purposes":["comms"],"wikipedia_slug":null,"has_3d_model":false,"image_url":null,"decayed_at":null,"tle_current":{"epoch":"2026-09-20T21:55:10.185312Z","epoch_age_seconds":45996,"freshness":"FRESH","line1":"1 53662U 22105Q   26263.91331233  .00012112  00000+0  32320-3 0  9995","line2":"2 53662  97.4933 151.6094 0003611 117.1647 242.9966 15.38274684223220","mean_motion":15.38274684,"eccentricity":0.0003611,"inclination_deg":97.4933,"raan_deg":151.6094,"arg_perigee_deg":117.1647,"mean_anomaly_deg":242.9966,"bstar":0.0003232,"rev_number":22322,"period_min":93.61136960634,"perigee_km":448.74496536039,"apogee_km":453.677120517,"semimajor_km":6829.3480429387,"source":"CELESTRAK","updated_at":"2026-09-21T09:00:32.952162Z"}}}